Location: Boiro
(42.6475°N, 8.8834°W)
Time: 18:27:10
(UTC+01:00)

A-11 Canister half - Pass Details

Date: 08 December 2021
Orbit: 1516 x 1684 km, 47.2° (Epoch: 26 January)

Event Time Altitude Azimuth Distance (km) Brightness Sun altitude
Rises 14:58:25 0° 294° (WNW) 4,902 11.6 21.3°
Reaches altitude 10° 15:02:03 10° 285° (WNW) 3,927 11.3 21.0°
Maximum altitude 15:10:17 30° 230° (SW) 2,692 11.8 20.4°
Drops below altitude 10° 15:18:34 10° 174° (S) 3,932 12.3 19.7°
Sets 15:22:15 0° 164° (SSE) 4,908 12.4 19.4°
